LNI102 WSSS-VTSP

Flight info

Callsign LNI102
Flight time N/A
Altitude 36000
Route AROSO3A AROSO Y513 KALIL Y501 RINBA Y502 DUBAX R325 URGAD URGAD1C
Aircraft B738/M-SDE2E3FGHIRWXY/LB1

Departure

Time N/A
Airport Singapore Changi Airport (WSSS)

Arrival

Time 2026-05-06 18:00
Airport Phuket International Airport (VTSP)
Time Latitude Longitude Altitude Speed Heading
2026-05-06 17:52 7.92396 98.33765 5032 ft 241 kts 311°
2026-05-06 17:52 7.93456 98.32540 4725 ft 238 kts 311°
2026-05-06 17:52 7.94442 98.31400 4450 ft 235 kts 311°
2026-05-06 17:53 7.95489 98.30190 4159 ft 233 kts 311°
2026-05-06 17:53 7.96446 98.29084 3913 ft 229 kts 311°
2026-05-06 17:53 7.97385 98.27998 3633 ft 228 kts 311°
2026-05-06 17:53 7.98349 98.26884 3457 ft 218 kts 311°
2026-05-06 17:54 7.99185 98.25918 3379 ft 206 kts 311°
2026-05-06 17:54 8.00015 98.24958 3314 ft 193 kts 311°
2026-05-06 17:54 8.00800 98.24050 3219 ft 184 kts 311°
2026-05-06 17:54 8.01564 98.23165 3137 ft 175 kts 311°
2026-05-06 17:55 8.02283 98.22334 3039 ft 175 kts 311°
2026-05-06 17:55 8.03047 98.21577 2834 ft 177 kts 322°
2026-05-06 17:55 8.03965 98.21053 2609 ft 167 kts 339°
2026-05-06 17:55 8.05020 98.20753 2439 ft 156 kts 349°
2026-05-06 17:56 8.06011 98.20655 2223 ft 151 kts
2026-05-06 17:56 8.06874 98.20763 2075 ft 147 kts 13°
2026-05-06 17:56 8.07778 98.21045 1916 ft 148 kts 22°
2026-05-06 17:56 8.08601 98.21489 1754 ft 148 kts 34°
2026-05-06 17:57 8.09329 98.22101 1618 ft 145 kts 45°
2026-05-06 17:57 8.09917 98.22813 1441 ft 151 kts 56°
2026-05-06 17:57 8.10356 98.23629 1259 ft 149 kts 67°
2026-05-06 17:57 8.10634 98.24511 1096 ft 149 kts 77°
2026-05-06 17:58 8.10760 98.25421 969 ft 148 kts 85°
2026-05-06 17:58 8.10833 98.26370 771 ft 150 kts 85°
2026-05-06 17:58 8.10906 98.27284 597 ft 146 kts 85°
2026-05-06 17:58 8.10987 98.28169 506 ft 147 kts 84°
2026-05-06 17:59 8.11067 98.29051 400 ft 149 kts 84°
2026-05-06 17:59 8.11154 98.29974 188 ft 148 kts 84°
2026-05-06 17:59 8.11243 98.30885 45 ft 135 kts 84°
2026-05-06 17:59 8.11315 98.31619 68 ft 108 kts 84°
2026-05-06 18:00 8.11384 98.32375 103 ft 118 kts 84°
2026-05-06 18:00 8.11446 98.33049 109 ft 34 kts 84°
2026-05-06 18:00 8.11449 98.33084 109 ft 0 kts 87°